Regional Weather Roundup
Issued by NWS Wakefield, VA

Home | Current Version | Previous Version | Graphics & Text | Print | Product List | Glossary On
Versions: 1 2 3 4 5 6 7 8 9 10 11 12 13 14 15 16 17 18 19 20 21 22 23 24 25 26 27 28 29 30 31 32 33 34 35 36 37 38 39 40 41 42 43 44 45 46 47 48 49 50
000
ASUS41 KAKQ 011415
RWRAKQ

REGIONAL WEATHER ROUNDUP
NATIONAL WEATHER SERVICE WAKEFIELD VA
1000 AM EDT SUN MAY 01 2016

Note: "fair" indicates few or no clouds below 12,000 feet with no
significant weather and/or obstructions to visibility. * = Denotes
station may not report precipitation (e.g., rain,snow,etc.),
thunder or fog.

VAZ042-051-052>054-056-011500-
NORTHERN VIRGINIA

CITY           SKY/WX    TMP DP  RH WIND       PRES   REMARKS
WASH NATIONAL  LGT RAIN  54  52  93 SE8       30.12F
DULLES         LGT RAIN  53  51  93 S9        30.10F
FORT BELVOIR   LGT RAIN  54  52  93 SE5       30.12S
QUANTICO       LGT RAIN  55  52  89 S8        30.12S FOG
FREDERICKSBRG* LGT RAIN  53  53 100 CALM      30.10F
STAFFORD*      LGT RAIN  53  51  94 CALM      30.15S
WARRENTON      LGT RAIN  54  49  83 CALM      30.10S
CULPEPER*      LGT RAIN  54  54  99 CALM      30.11F
MANASSAS*      LGT RAIN  54  54 100 S7        30.11S VSB 1
LEESBURG*      LGT RAIN  54  54 100 S7        30.11S
WINCHESTER     RAIN      54  52  94 S8        30.05S
FRONT ROYAL*   CLOUDY    54  54 100 S3        30.06S
LURAY*         PTSUNNY   54  54 100 S3        30.06S
$$

VAZ048-049-060>072-079>083-011500-
CENTRAL AND SOUTH CENTRAL VIRGINIA

CITY           SKY/WX    TMP DP  RH WIND       PRES   REMARKS
RICHMOND       LGT RAIN  55  54  96 S6        30.10F
CHESTERFIELD*  CLOUDY    55  43  62 SE7       30.11F
PETERSBURG*    CLOUDY    56  56 100 SE5       30.11F
HANOVER        LGT RAIN  55  52  89 VRB3      30.11F
TAPPAHANNOCK*  CLOUDY    55  55  97 E5        30.12F
QUINTON*       CLOUDY    55  54  97 SE9       30.10F
CHARLOTTSVILLE HVY RAIN  53  50  89 S8        30.08F FOG
GORDONSVILLE*  CLOUDY    52  52 100 SE3       30.10S FOG
ORANGE*        DRIZZLE   54  54 100 CALM      30.13R
LOUISA*        RAIN      55  54  94 CALM      30.09F
BUMPASS*       CLOUDY    53  52  97 SE3       30.10S
FARMVILLE*     LGT RAIN  55  55 100 CALM      30.06F
CREWE*         CLOUDY    54  54 100 SE5       30.08F
FORT PICKETT*  NOT AVBL
CHASE CITY*    CLOUDY    57  56  94 SE6       30.07F
CLARKSVILLE*   CLOUDY    59  59 100 SE5       30.06F
SOUTH HILL*    CLOUDY    57  57  99 S8        30.14F
LAWRENCEVILLE* CLOUDY    56  56  99 SE6       30.09F
EMPORIA*       LGT RAIN  55  54  94 SE7       30.12S
$$

VAZ088>098-011500-
SOUTHEAST VIRGINIA

CITY           SKY/WX    TMP DP  RH WIND       PRES   REMARKS
NORFOLK        PTSUNNY   59  51  75 SE8       30.12S
VIRGINIA BEACH CLOUDY    61  51  70 SE10      30.13S
NORFOLK NAVAL  PTSUNNY   60  52  74 SE7       30.14S
WEST POINT*    CLOUDY    56  54  92 SE6       30.13F
SALUDA*        CLOUDY    56  53  89 SE5       30.12F
NEWPORT NEWS   CLOUDY    59  53  80 SE6       30.12F
LANGLEY AFB    DRIZZLE   59  54  82 SE12      30.12F
FORT EUSTIS    PTSUNNY   59  53  80 SE9       30.10F
WILLIAMSBURG*  FAIR      59  55  88 SE7       30.12F
HR EXEC AP*    PTSUNNY   61  54  77 SE7       30.15S
FRANKLIN*      LGT RAIN  57  54  91 CALM      30.13S
US460-WAKEFLD  LGT RAIN  58  53  84 CALM      30.11S
$$

VAZ020-022-025-037-045-011500-
WEST CENTRAL AND SOUTHWEST VIRGINIA

CITY           SKY/WX    TMP DP  RH WIND       PRES   REMARKS
STAUNTON*      DRIZZLE   56  56 100 S5        30.08F
WAYNESBORO*    CLOUDY    52  51  96 MISG      30.06F
HOT SPRINGS VA CLOUDY    55  55 100 W15       30.09R
LYNCHBURG      LGT RAIN  54  53  97 S9        30.10R
DANVILLE       CLOUDY    60  59  96 CALM      30.07S FOG
SOUTH BOSTON*  CLOUDY    58  57  96 CALM      30.07F
MARTINSVILLE   HVY RAIN  54  54  99 NE5       30.11R VSB 1/2
ROANOKE        HVY RAIN  56  54  93 CALM      30.11S FOG
BLACKSBURG     LGT RAIN  57  57  99 SE5       30.12R
DUBLIN*        CLOUDY    58  58 100 SE3       30.10F
MARION*        CLOUDY    59  57  94 E5        30.12S
HILLSVILLE*    LGT RAIN  57  56  99 CALM      30.09R
RICHLANDS*     LGT RAIN  59  59  99 CALM      30.08S
WISE*          LGT RAIN  61  61 100 SW5       30.08S
ABINGDON*      RAIN      62  61  97 E6        30.07R
$$

MDZ021>025-VAZ099-100-011500-
SOUTHERN MARYLAND AND THE DELMARVA PENINSULA

CITY           SKY/WX    TMP DP  RH WIND       PRES   REMARKS
PATUXENT RIVER LGT RAIN  53  50  89 SE9       30.13S
BAY BRIDGE APT NOT AVBL
LEONARDTOWN    CLOUDY    52  50  93 E6        30.13F
DOVER          LGT RAIN  50  50 100 SE7       30.16R FOG
GEORGETOWN     LGT RAIN  51  50  96 E8        30.16F
EASTON         NOT AVBL
CAMBRIDGE      CLOUDY    50  48  93 E3        30.14F
SALISBURY      LGT RAIN  52  51  97 E9        30.14S
OCEAN CITY     LGT RAIN  52  50  93 E9        30.15F
WALLOPS ISLAND LGT RAIN  54  51  90 E8        30.15S
ACCOMACK*      CLOUDY   N/A N/A N/A SE7       30.14R
$$

NCZ012>017-030>032-011500-
NORTH CENTRAL AND EASTERN NORTH CAROLINA

CITY           SKY/WX    TMP DP  RH WIND       PRES   REMARKS
ROANOKE RAPIDS CLOUDY    57  55  94 SE6       30.11F
RALEIGH        CLOUDY    64  61  88 S9        30.09S
ELIZABETH CITY CLOUDY    62  56  80 E6        30.13F
AHOSKIE*       LGT RAIN  58  55  88 SE3       30.13F
EDENTON*       CLOUDY    65  62  90 SE5       30.13S
CURRITUCK*     CLOUDY    60  54  79 E5        30.14F
KILL DEVIL HLS CLOUDY    65  60  83 E5        30.12S
MANTEO         NOT AVBL
CAPE HATTERAS  MOSUNNY   71  62  73 S6        30.14R
TARBORO*       CLOUDY    62  57  83 SE7       30.13F
GOLDSBORO      CLOUDY    68  68 100 E5        30.09F
WASHINGTON     MOSUNNY   65  59  82 CALM      30.13S
GREENVILLE     CLOUDY    63  59  88 CALM      30.13F
NEW BERN       CLOUDY    70  63  78 SE3       30.13F
WILMINGTON     PTSUNNY   74  64  71 S13G20    30.12R
$$

VAZ048-011500-
ELSEWHERE

CITY           SKY/WX    TMP DP  RH WIND       PRES   REMARKS
HARRISBURG PA  LGT RAIN  47  44  90 SE10      30.11F
BALTIMORE      LGT RAIN  51  50  96 E6        30.13S FOG
ANNAPOLIS      LGT RAIN  52  50  93 SE14      30.13S
ANDREWS AFB    LGT RAIN  52  51  95 SE8       30.11F
PHILADELPHIA   LGT RAIN  47  42  83 E7        30.19F
HENDERSON NC   CLOUDY    58  58 100 S6        30.08S FOG
GREENSBORO     LGT RAIN  63  62  97 S13       30.05S FOG
ROCKY MOUNT    CLOUDY    62  58  86 SE7       30.11F
$$

VAZ100-011500-
MARINE

STATION/POSITION TIME  TEMP    WIND        PRES    WAVE   SWELL
                       AIR SEA DIR/SP/G            HT/PER HT/PER
                 (UTC) (F)     (DEG/KT/KT) (MB)    (FT/S) (FT/S)
BRANDYWINE LGT   1300   50     120/ 11/ 12 1022.2R
CAPE MAY NJ      1300   50 57  110/  6/  7 1021.9S
LEWES DE         1300   51 56  140/  4/  5 1022.1R
15NM E FENWICK I 1350   51 51              1022.0R   4/ 9
OCEAN-CITY-INLET 1300   52 54  130/  5/  8 1021.1R
WACHAPREAGUE VA  1300   55 58  110/  7/ 10 1020.3F
THOMAS POINT MD  1400   51 57  140/ 13/ 15 1021.5F
GOOSES REEF MD   1400   53 57  130/ 12/ 14 1021.0F   2/ 3
COVE POINT MD    1300   53     170/ 13/ 15 1021.0R
SOLOMONS ISLAND  1300   54 58  150/  8/ 11   N/A
BISHOPS HEAD MD  1300   53 57  110/ 10/ 13 1019.6F
PINEY POINT MD   1300          150/ 14/ 16   N/A
POTOMAC MD       1400   55 58  140/ 12/ 14 1019.3S   2/ 3
CAMBRIDGE MD     1300   51 60  110/  5/  6 1020.0F
LEWISETTA VA     1300   54 59  140/  6/  7 1019.9F
RAPPAHANNOCK LGT 1300          110/ 13/ 14 1020.4F
STINGRAY PT      1400   58 60  140/ 12/ 16 1020.2F   2/ 3
YORK RVR RNG VA  1300   57     140/ 12/ 14 1019.6S
YORKTOWN VA      1300   58 61  150/  8/ 12 1019.9F
JAMESTOWN VA     1400   58 65  130/ 12/ 14   N/A
DOMINION TERM VA 1300   58     110/  6/  9 1020.3R
KIPTOPEKE VA     1300      59  110/  9/ 14   N/A
CHES BAY BRIDGE  1300   57 60   90/  9/ 14 1019.8F
CAPE HENRY VA    1300   56     100/ 13/ 15   N/A
CHESAPEAKE LGHT  1300   54      80/ 14/ 15 1021.2F
WILLOUBY STN VA  1300   57     110/ 10/ 12 1021.1F
CAPE HENRY BUOY  1312      56                N/A     4/ 9   2/11
CAPE CHARLES BUO 1326      56                N/A     3/ 9   3/ 9
OFFSHORE WE BUOY 1321      54                N/A     4/ 9   3/ 9
64NM E OF VA BCH 1350   56 53   80/  8/ 10 1020.2F   5/10   5/10
DUCK PIER NC     1300   58 66  100/  7/  8 1019.8F
44100 DUCK FRF   1324      54                N/A     4/10   2/11
44056 DUCK FRF   1311      59                N/A     4/11   2/11
OREGON INLET NC  1300   62 60   90/  5/  8 1020.0R
HATTERAS NC      1300   67 66  120/  4/  7 1019.6F
DIAMOND SHLS NC  1350   73 73  180/ 12/ 14 1020.3R   4/10   3/10
CAPE LOOKOUT NC  1400   69     160/  7/  8 1019C1F1C2F2C3F3C4F4C5F5C6F6C7F7C8M1C9!


USA.gov is the U.S. government's official web portal to all federal, state and local government web resources and services.